Regional Weather Roundup
Issued by NWS

Home | Current Version | Previous Version | Graphics & Text | Print | Product List | Glossary On
Versions: 1 2 3 4 5 6 7 8 9 10 11 12 13 14 15 16 17 18 19 20 21 22 23 24 25 26 27 28
000
ASUS45 KTFX 220910
RWRMT
MONTANA REGIONAL WEATHER ROUNDUP
NATIONAL WEATHER SERVICE GREAT FALLS MT
300 AM MDT SUN APR 22 2018

NOTE: "FAIR" INDICATES FEW OR NO CLOUDS BELOW 12000 FEET WITH NO
SIGNIFICANT WEATHER AND/OR OBSTRUCTIONS TO VISIBILITY.

MTZ001>007-043-221000-
WEST OF THE DIVIDE

CITY           SKY/WX    TMP DP  RH WIND       PRES   REMARKS
KALISPELL      FAIR      39  25  57 S9        30.16S
MISSOULA       FAIR      37  23  56 NW6       30.21S
BUTTE          FAIR      35  22  58 N3        30.18R
MULLAN PASS    FAIR      29  16  58 SW7       30.17S WCI  22
ANACONDA         N/A     32  21  64 W6        30.19S WCI  26
DEER LODGE       N/A     36  19  51 N6        30.20S WCI  31
HAMILTON         N/A     39  27  60 MISG      30.20S
RONAN            N/A     36  25  64 SE8       30.21S WCI  29
$$

MTZ008-052>055-221000-
SOUTHWEST MONTANA

CITY           SKY/WX    TMP DP  RH WIND       PRES   REMARKS
BOZEMAN        FAIR      37  27  67 S9        30.16R WCI  30
DILLON         FAIR      36  26  67 E7        30.15R WCI  30
ENNIS          CLEAR     34  25  69 S5        30.19S
W YELLOWSTONE  FAIR      36  27  69 S5        30.16R
THREE FORKS      N/A     32  26  78 CALM      30.14R
$$

MTZ009-010-012-014-046-048-049-054-221000-
EAST SLOPES AND CENTRAL MONTANA

CITY           SKY/WX    TMP DP  RH WIND       PRES   REMARKS
CUT BANK       FAIR      40  20  44 W16       30.10R
GREAT FALLS    FAIR      40  24  53 SW6       30.14R
HELENA         FAIR      46  22  38 W9        30.17R
AUGUSTA        CLOUDY    40  18  40 W5        30.13R
BOWMANS CRNR   CLOUDY    38  20  50 CALM      30.12R
CHOTEAU          N/A     41  21  45 CALM      30.14S
FAIRFIELD      MOCLDY    40  22  46 NW7       30.11S
POWER          MOCLDY    40  22  48 SW7       30.11S
RAYNESFORD     CLOUDY    40  23  52 NE3       30.13S
ULM            CLOUDY    39  28  65 S3        30.14R
WHITE SULPHUR    N/A     39  23  52 NE7       30.14R
$$

MTZ011-013-016-021-045-047-050-051-221000-
NORTH CENTRAL MONTANA

CITY           SKY/WX    TMP DP  RH WIND       PRES   REMARKS
HAVRE          FAIR      37  28  70 S8        30.10S WCI  31
LEWISTOWN      FAIR      35  23  61 S5        30.15R
N BAR RANCH    MOCLDY    39  19  45 W6        30.17S
CHINOOK          N/A     41  28  60 SW5       30.10R
GEYSER         MOCLDY    41  21  44 SW9       30.13S
GRASS RANGE    MOCLDY    41  25  52 SW9       30.12R
STANFORD       MOCLDY    38  21  50 W5        30.14S
WINIFRED         N/A    N/A N/A N/A W6          N/A
$$

MTZ017>020-022>027-061-062-221000-
NORTHEAST MONTANA

CITY           SKY/WX    TMP DP  RH WIND       PRES   REMARKS
GLASGOW        FAIR      41  26  55 W6        30.09R
GLENDIVE       FAIR      42  29  59 SE3       30.10R
JORDAN           N/A     36  29  75 W3        30.12R
MALTA          CLEAR     41  30  65 NW7       30.08R
SIDNEY         CLOUDY    48  29  47 NW5       30.08R
WOLF POINT     FAIR      45  26  47 SW6       30.09R
PLENTYWOOD       N/A     46  25  42 CALM      30.05R
POPLAR           N/A     46  25  42 SW5       30.09R
$$

MTZ028>42-056>058-221000-
SOUTHCENTRAL AND SOUTHEAST MONTANA

CITY           SKY/WX    TMP DP  RH WIND       PRES   REMARKS
BAKER          FAIR      37  36  96 CALM      30.10R
BILLINGS       FAIR      47  29  49 E6        30.17R
MILES CITY     FAIR      46  30  53 N9        30.11R
BIG TIMBER     CLOUDY    43  27  52 SE9       30.18R
FORSYTH          N/A     48  27  43 CALM      30.14R
HARLOWTON      FAIR      40  19  43 NW7       30.15R
LAUREL           N/A     45  21  39 N9        30.17S
$$

REGIONAL REPORTS...DAKOTAS

CITY           SKY/WX    TMP DP  RH WIND       PRES   REMARKS
WILLISTON      MOCLDY    48  28  46 NW12      30.05S
MINOT          FAIR      44  36  73 S13G26    30.08R
DICKINSON      FAIR      37  35  92 S8        30.08R WCI  31
BEACH          FAIR      36  36 100 SW5       30.12S
CROSBY         FAIR      45  32  61 W10       30.03S
TIOGA          FAIR      39  39 100 S7G14     30.05S
BISMARCK       FAIR      39  34  82 S13       30.15F WCI  31
GRAND FORKS    FAIR      38  37  97 S10       30.23S WCI  31
FARGO          FAIR      42  33  70 S8        30.27S
BUFFALO SD       N/A     38  34  85 S7        30.04
RAPID CITY     FAIR      36  33  89 S8        30.10F WCI  30
$$

REGIONAL REPORTS...WYOMING/IDAHO/WASHINGTON

CITY           SKY/WX    TMP DP  RH WIND       PRES   REMARKS
GILLETTE       FAIR      38  35  89 S16       30.08S WCI  29
SHERIDAN       FAIR      48  33  56 NW15G25   30.15R
BUFFALO WY     FAIR      49  32  52 NW25G35   30.12R
CODY           FAIR      47  26  44 N9        30.16R
YELLOWSTONE LA   N/A     26  23  88 CALM      30.23F
IDAHO FALLS    FAIR      48  31  51 S14       30.14R
SALMON         FAIR      38  31  76 CALM      30.16S
BOISE          FAIR      46  30  53 W7        30.15R
SPOKANE        FAIR      37  26  64 SW8       30.21S WCI  31
$$

REGIONAL REPORTS...ALBERTA

CITY           SKY/WX    TMP DP  RH WIND       PRES   REMARKS
CALGARY        PTCLDY    41  21  45 W18G31    30.02S
CARDSTON         N/A     41  21  45 SW7         N/A
EDMONTON       CLEAR     37  19  48 W16G25    29.93R WCI  28
FORT MCMURRAY  CLOUDY    41  37  87 W6        29.69S
HIGH LEVEL     LGT RAIN  36  34  93 N12       29.89R FOG     WCI  27
LETHBRIDGE     PTCLDY    34  25  69 SW7       30.08R WCI  28
LLOYDMINSTER   CLOUDY    37  34  87 W22G28    29.80R WCI  27
MEDICINE HAT   CLEAR     37  27  65 SW9       30.04S WCI  31
MILK RIVER       N/A     36  27  69 NW2         N/A
ONEFOUR          N/A     39  28  65 NW12        N/A  WCI  32
PEACE RIVER    CLOUDY    37  32  81 W12       29.91R WCI  30
PINCHER CREEK  CLEAR     37  23  56 SW15      30.08S WCI  28
WATERTON GATE    N/A     36  21  55 SW5         N/A
$$

REGIONAL REPORTS...SASKATCHEWAN

CITY           SKY/WX    TMP DP  RH WIND       PRES   REMARKS
CORONACH         N/A     36  25  64 W6          N/A  WCI  31
CYPRESS HILLS    N/A     39  18  41 W12G20      N/A  WCI  32
ESTEVAN        MOCLDY    46  32  57 W9        30.01R
MOOSE JAW        N/A     43  32  65 W21         N/A
PRINCE ALBERT  LGT RAIN  39  36  87 W17G26    29.61R WCI  30
REGINA         PTCLDY    37  32  81 S13       29.94S WCI  29
ROCKGLEN         N/A     36  25  64 W8          N/A  WCI  29
SASKATOON      PTCLDY    43  36  75 W23G37    29.79R
SWIFT CURRENT  MOCLDY    39  28  65 W21G30    29.96S WCI  29
VAL MARIE        N/A     34  27  75 SW3         N/A
$$




USA.gov is the U.S. government's official web portal to all federal, state and local government web resources and services.